• Em Portugal
  • Lista de países
  • Para 7 dias
  • Temperatura da água
  • Mapas de satélite
  • Mapa do tempo
  • Widgets de tempo
  • user-avatar
    Iniciar Sessão

    Previsão horária em Orlinoe

    Hoje, 22 Setembro, Sábado

    Tempo Temperatura Precipitação Vento Pressão Humidade
    00:00 +13°C° 0 mm 2 m/s 749 mmHg 69%
    01:00 +13°C° 0 mm 2 m/s 749 mmHg 70%
    02:00 +13°C° 0 mm 1 m/s 749 mmHg 70%
    03:00 +13°C° 0 mm 2 m/s 749 mmHg 69%
    04:00 +13°C° 0 mm 2 m/s 748 mmHg 70%
    05:00 +13°C° 0 mm 2 m/s 748 mmHg 71%
    06:00 +13°C° 0 mm 2 m/s 748 mmHg 71%
    07:00 +14°C° 0.4 mm 2 m/s 748 mmHg 77%
    08:00 +14°C° 0.4 mm 2 m/s 748 mmHg 83%
    09:00 +14°C° 0 mm 1 m/s 748 mmHg 87%
    10:00 +15°C° 0.5 mm 1 m/s 748 mmHg 87%
    11:00 +15°C° 0.5 mm 2 m/s 748 mmHg 88%
    12:00 +16°C° 0.5 mm 2 m/s 748 mmHg 88%
    13:00 +17°C° 0.3 mm 2 m/s 748 mmHg 84%
    14:00 +18°C° 0.3 mm 2 m/s 748 mmHg 81%
    15:00 +20°C° 0 mm 2 m/s 747 mmHg 77%
    16:00 +19°C° 0.7 mm 1 m/s 747 mmHg 81%
    17:00 +18°C° 0.7 mm 1 m/s 748 mmHg 85%
    18:00 +15°C° 0.7 mm 1 m/s 748 mmHg 90%
    19:00 +15°C° 0.4 mm 1 m/s 748 mmHg 91%
    20:00 +14°C° 0.4 mm 1 m/s 749 mmHg 93%
    21:00 +13°C° 0 mm 1 m/s 749 mmHg 95%
    22:00 +13°C° 0.3 mm 1 m/s 749 mmHg 95%
    23:00 +12°C° 0.3 mm 1 m/s 750 mmHg 96%

    Amanhã, 23 Setembro, Domingo

    Tempo Temperatura Precipitação Vento Pressão Humidade
    00:00 +12°C° 0.3 mm 1 m/s 750 mmHg 96%
    01:00 +11°C° 0.1 mm 1 m/s 750 mmHg 96%
    02:00 +11°C° 0.1 mm 1 m/s 750 mmHg 96%
    03:00 +11°C° 0.1 mm 1 m/s 750 mmHg 96%
    04:00 +10°C° 0 mm 1 m/s 750 mmHg 96%
    05:00 +10°C° 0 mm 1 m/s 750 mmHg 96%
    06:00 +10°C° 0 mm 1 m/s 751 mmHg 96%
    07:00 +12°C° 0 mm 1 m/s 751 mmHg 92%
    08:00 +14°C° 0 mm 1 m/s 751 mmHg 88%
    09:00 +16°C° 0 mm 1 m/s 751 mmHg 84%
    10:00 +19°C° 0 mm 1 m/s 750 mmHg 73%
    11:00 +21°C° 0 mm 1 m/s 750 mmHg 63%
    12:00 +23°C° 0 mm 1 m/s 750 mmHg 52%
    13:00 +22°C° 0.1 mm 1 m/s 750 mmHg 53%
    14:00 +22°C° 0.1 mm 1 m/s 749 mmHg 53%
    15:00 +22°C° 0.1 mm 1 m/s 749 mmHg 54%
    16:00 +20°C° 0.5 mm 1 m/s 749 mmHg 64%
    17:00 +18°C° 0.5 mm 1 m/s 748 mmHg 73%
    18:00 +15°C° 0.5 mm 1 m/s 748 mmHg 83%
    19:00 +14°C° 0.5 mm 1 m/s 748 mmHg 86%
    20:00 +13°C° 0.5 mm 1 m/s 748 mmHg 89%
    21:00 +12°C° 0.5 mm 1 m/s 748 mmHg 92%
    22:00 +12°C° 0.1 mm 1 m/s 748 mmHg 93%
    23:00 +11°C° 0.1 mm 1 m/s 748 mmHg 93%

    Depois de amanhã, 24 Setembro, Segunda-feira

    Tempo Temperatura Precipitação Vento Pressão Humidade
    00:00 +11°C° 0.1 mm 1 m/s 748 mmHg 94%
    01:00 +11°C° 0 mm 1 m/s 748 mmHg 95%
    02:00 +11°C° 0 mm 1 m/s 748 mmHg 95%
    03:00 +10°C° 0 mm 1 m/s 748 mmHg 95%
    04:00 +10°C° 0.6 mm 1 m/s 748 mmHg 96%
    05:00 +11°C° 0.6 mm 1 m/s 748 mmHg 97%
    06:00 +10°C° 0.6 mm 0 m/s 748 mmHg 97%
    07:00 +11°C° 0.3 mm 1 m/s 748 mmHg 96%
    08:00 +12°C° 0.3 mm 1 m/s 748 mmHg 94%
    09:00 +13°C° 0.3 mm 1 m/s 748 mmHg 92%
    10:00 +13°C° 0.2 mm 2 m/s 748 mmHg 90%
    11:00 +13°C° 0.2 mm 3 m/s 748 mmHg 88%
    12:00 +13°C° 0.2 mm 3 m/s 748 mmHg 85%
    13:00 +13°C° 0.2 mm 3 m/s 748 mmHg 84%
    14:00 +13°C° 0.2 mm 4 m/s 748 mmHg 82%
    15:00 +13°C° 0.2 mm 4 m/s 747 mmHg 80%
    16:00 +12°C° 0.1 mm 3 m/s 748 mmHg 84%
    17:00 +12°C° 0.1 mm 2 m/s 748 mmHg 87%
    18:00 +10°C° 0.1 mm 2 m/s 749 mmHg 91%
    19:00 +9°C° 0 mm 2 m/s 749 mmHg 93%
    20:00 +9°C° 0 mm 1 m/s 750 mmHg 94%
    21:00 +9°C° 0 mm 1 m/s 750 mmHg 96%
    22:00 +8°C° 0 mm 1 m/s 750 mmHg 96%
    23:00 +7°C° 0 mm 2 m/s 750 mmHg 96%

    25 Setembro, Terça-feira

    Tempo Temperatura Precipitação Vento Pressão Humidade
    00:00 +7°C° 0 mm 2 m/s 751 mmHg 97%
    01:00 +7°C° 0 mm 2 m/s 751 mmHg 97%
    02:00 +7°C° 0 mm 2 m/s 751 mmHg 97%
    03:00 +7°C° 0 mm 2 m/s 751 mmHg 97%
    04:00 +7°C° 0 mm 2 m/s 751 mmHg 97%
    05:00 +8°C° 0 mm 1 m/s 751 mmHg 97%
    06:00 +8°C° 0 mm 1 m/s 751 mmHg 97%
    07:00 +8°C° 0 mm 2 m/s 752 mmHg 94%
    08:00 +9°C° 0 mm 2 m/s 752 mmHg 90%
    09:00 +10°C° 0 mm 2 m/s 752 mmHg 86%
    10:00 +12°C° 0 mm 2 m/s 752 mmHg 81%
    11:00 +14°C° 0 mm 2 m/s 752 mmHg 76%
    12:00 +14°C° 0 mm 3 m/s 752 mmHg 71%
    13:00 +14°C° 0 mm 3 m/s 752 mmHg 67%
    14:00 +16°C° 0 mm 3 m/s 751 mmHg 63%
    15:00 +16°C° 0 mm 3 m/s 751 mmHg 60%
    16:00 +14°C° 0 mm 3 m/s 751 mmHg 67%
    17:00 +13°C° 0 mm 2 m/s 752 mmHg 74%
    18:00 +11°C° 0 mm 1 m/s 752 mmHg 82%
    19:00 +11°C° 0 mm 1 m/s 753 mmHg 83%
    20:00 +10°C° 0 mm 1 m/s 753 mmHg 85%
    21:00 +9°C° 0 mm 1 m/s 754 mmHg 87%
    22:00 +9°C° 0 mm 1 m/s 754 mmHg 88%
    23:00 +9°C° 0 mm 1 m/s 754 mmHg 89%

    26 Setembro, Quarta-feira

    Tempo Temperatura Precipitação Vento Pressão Humidade
    00:00 +8°C° 0 mm 1 m/s 754 mmHg 91%
    01:00 +8°C° 0 mm 1 m/s 754 mmHg 92%
    02:00 +8°C° 0 mm 1 m/s 754 mmHg 93%
    03:00 +8°C° 0 mm 1 m/s 755 mmHg 94%
    04:00 +7°C° 0 mm 1 m/s 755 mmHg 95%
    05:00 +7°C° 0 mm 1 m/s 755 mmHg 95%
    06:00 +7°C° 0 mm 1 m/s 755 mmHg 95%
    07:00 +9°C° 0 mm 1 m/s 756 mmHg 87%
    08:00 +12°C° 0 mm 1 m/s 756 mmHg 79%
    09:00 +14°C° 0 mm 1 m/s 756 mmHg 72%
    10:00 +16°C° 0 mm 1 m/s 756 mmHg 66%
    11:00 +18°C° 0 mm 1 m/s 756 mmHg 59%
    12:00 +18°C° 0 mm 2 m/s 756 mmHg 53%
    13:00 +18°C° 0 mm 2 m/s 756 mmHg 54%
    14:00 +18°C° 0 mm 2 m/s 755 mmHg 54%
    15:00 +18°C° 0 mm 2 m/s 755 mmHg 54%
    16:00 +16°C° 0 mm 1 m/s 756 mmHg 63%
    17:00 +14°C° 0 mm 1 m/s 756 mmHg 72%
    18:00 +11°C° 0 mm 0 m/s 756 mmHg 81%
    19:00 +10°C° 0 mm 0 m/s 756 mmHg 83%
    20:00 +10°C° 0 mm 0 m/s 757 mmHg 85%
    21:00 +9°C° 0 mm 0 m/s 757 mmHg 86%
    22:00 +9°C° 0 mm 0 m/s 757 mmHg 88%
    23:00 +9°C° 0 mm 1 m/s 757 mmHg 89%

    27 Setembro, Quinta-feira

    Tempo Temperatura Precipitação Vento Pressão Humidade
    00:00 +9°C° 0 mm 1 m/s 757 mmHg 90%
    01:00 +9°C° 0 mm 1 m/s 757 mmHg 90%
    02:00 +8°C° 0 mm 1 m/s 757 mmHg 91%
    03:00 +8°C° 0 mm 1 m/s 757 mmHg 92%
    04:00 +8°C° 0 mm 1 m/s 757 mmHg 92%
    05:00 +8°C° 0 mm 1 m/s 757 mmHg 93%
    06:00 +7°C° 0 mm 1 m/s 757 mmHg 93%
    07:00 +10°C° 0 mm 1 m/s 757 mmHg 84%
    08:00 +13°C° 0 mm 1 m/s 757 mmHg 75%
    09:00 +15°C° 0 mm 1 m/s 758 mmHg 67%
    10:00 +18°C° 0 mm 1 m/s 757 mmHg 61%
    11:00 +18°C° 0 mm 0 m/s 757 mmHg 55%
    12:00 +20°C° 0 mm 0 m/s 756 mmHg 48%
    13:00 +19°C° 0 mm 0 m/s 756 mmHg 48%
    14:00 +19°C° 0 mm 0 m/s 756 mmHg 48%
    15:00 +21°C° 0 mm 1 m/s 755 mmHg 47%
    16:00 +19°C° 0 mm 1 m/s 756 mmHg 56%
    17:00 +15°C° 0 mm 1 m/s 756 mmHg 64%
    18:00 +12°C° 0 mm 0 m/s 756 mmHg 73%
    19:00 +12°C° 0 mm 1 m/s 756 mmHg 75%
    20:00 +12°C° 0 mm 1 m/s 757 mmHg 78%
    21:00 +11°C° 0 mm 1 m/s 757 mmHg 81%
    22:00 +11°C° 0 mm 1 m/s 757 mmHg 83%
    23:00 +10°C° 0 mm 1 m/s 757 mmHg 85%
    Mostrar mais